GW3951 Weather Reports


Display with metric or nautical units.
time (UTC)temp
F
wind
direction
speed
MPH
gust
MPH
rain 1hr
in
rain 24hr
in
rain mn
in
humidity
%
barometer
mb
20260503211520 71 260 6.0 12.0 0.00 0.00 0.00 44 1016.9
20260503210022 71 263 2.0 8.0 0.00 0.00 0.00 45 1017.1
20260503204526 69 74 3.0 4.0 0.00 0.00 0.00 47 1017.1
20260503203025 69 207 2.0 6.0 0.00 0.00 0.00 48 1017.4
20260503201514 71 232 5.0 10.0 0.00 0.00 0.00 44 1017.6
20260503200019 70 193 3.0 9.0 0.00 0.00 0.00 44 1017.8
20260503194525 70 225 2.0 9.0 0.00 0.01 0.00 44 1017.9
20260503193004 69 218 4.0 9.0 0.00 0.01 0.00 46 1018.2
20260503191511 70 227 1.0 9.0 0.00 0.02 0.00 45 1018.6
20260503190006 69 194 5.0 10.0 0.00 0.03 0.00 45 1018.9
20260503184503 69 284 3.0 9.0 0.00 0.04 0.00 46 1019.2
20260503183004 67 270 2.0 10.0 0.00 0.05 0.00 46 1019.4
20260503181506 69 32 6.0 12.0 0.00 0.09 0.00 46 1019.6
20260503180003 69 329 3.0 12.0 0.00 0.09 0.00 44 1019.7
20260503174504 68 298 3.0 9.0 0.00 0.10 0.00 48 1019.6
20260503173003 67 251 2.0 8.0 0.00 0.10 0.00 47 1019.8
20260503171504 67 242 3.0 13.0 0.00 0.10 0.00 49 1020.0
20260503081515 46 322 0.0 0.0 0.00 0.30 0.00 97 1017.4
20260503071510 47 322 0.0 0.0 0.00 0.36 0.00 97 1016.8
20260503054512 49 322 0.0 2.0 0.00 0.41 0.00 97 1016.8
20260503053023 49 322 0.0 2.0 0.00 0.42 0.00 96 1016.7
20260503051522 49 322 0.0 2.0 0.00 0.42 0.00 96 1016.6
20260503050023 50 322 0.0 1.0 0.00 0.43 0.00 96 1016.4
20260503044513 50 322 0.0 2.0 0.00 0.43 0.00 96 1016.4
20260503043032 50 322 0.0 2.0 0.00 0.44 0.00 96 1016.2
20260503041521 51 322 0.0 2.0 0.00 0.44 0.00 96 1015.9
20260503040023 51 315 0.0 2.0 0.00 0.44 0.00 96 1015.6
20260503034526 51 9 0.0 2.0 0.00 0.44 0.44 96 1015.7
20260503033020 51 292 0.0 0.0 0.00 0.44 0.44 96 1015.6
20260503031518 51 292 0.0 0.0 0.00 0.44 0.44 96 1015.2
20260503030024 51 292 0.0 0.0 0.00 0.44 0.44 96 1015.2
20260503024519 52 315 0.0 2.0 0.00 0.44 0.44 96 1014.9
20260503023009 52 315 0.0 2.0 0.00 0.44 0.44 95 1014.6
20260503021536 53 315 0.0 2.0 0.00 0.44 0.44 95 1014.4
20260503020020 53 360 1.0 3.0 0.00 0.45 0.44 95 1014.4
20260503014523 54 352 0.0 2.0 0.00 0.46 0.44 95 1014.1
20260503013012 54 352 0.0 2.0 0.00 0.46 0.44 94 1014.0
20260503011515 54 352 1.0 2.0 0.00 0.46 0.44 94 1013.9
20260503010017 54 352 1.0 4.0 0.00 0.46 0.44 94 1013.7
20260503004521 54 11 1.0 5.0 0.00 0.46 0.44 94 1013.5
20260503003028 55 57 2.0 8.0 0.00 0.46 0.44 94 1013.6
20260503001509 55 25 2.0 6.0 0.00 0.46 0.44 94 1013.3
20260503000015 55 325 2.0 5.0 0.00 0.46 0.44 94 1013.1
20260502234518 55 28 0.0 4.0 0.00 0.46 0.44 95 1013.0
20260502233022 55 342 1.0 5.0 0.00 0.46 0.44 94 1012.7
20260502231526 55 348 2.0 8.0 0.00 0.46 0.44 94 1012.5
20260502230011 55 341 2.0 6.0 0.00 0.46 0.44 94 1012.3
20260502224530 55 360 3.0 5.0 0.00 0.46 0.44 93 1012.5
20260502223018 55 42 4.0 8.0 0.00 0.46 0.44 93 1012.4
20260502221522 56 31 4.0 7.0 0.00 0.46 0.44 93 1012.1
20260502220031 56 46 4.0 13.0 0.00 0.46 0.44 93 1012.2
20260502214513 56 22 3.0 10.0 0.00 0.46 0.44 93 1012.1
20260502213017 56 23 6.0 11.0 0.00 0.46 0.44 93 1011.9